| time (UTC) | temp F | wind direction | speed MPH | gust MPH | rain 1hr in | rain 24hr in | rain mn in | humidity % | barometer mb |
| 20260504191510 | 74 | 210 | 2.0 | 6.0 | 0.00 | 0.00 | 0.00 | 34 | 1006.9 |
| 20260504191006 | 74 | 339 | 2.0 | 6.0 | 0.00 | 0.00 | 0.00 | 36 | 1007.0 |
| 20260504190502 | 74 | 303 | 3.0 | 9.0 | 0.00 | 0.00 | 0.00 | 37 | 1007.2 |
| 20260504185958 | 73 | 293 | 1.0 | 8.0 | 0.00 | 0.00 | 0.00 | 37 | 1007.0 |
| 20260504185455 | 73 | 80 | 1.0 | 4.0 | 0.00 | 0.00 | 0.00 | 37 | 1007.1 |
| 20260504184952 | 72 | 204 | 1.0 | 3.0 | 0.00 | 0.00 | 0.00 | 39 | 1007.2 |
| 20260504184447 | 73 | 167 | 2.0 | 7.0 | 0.00 | 0.00 | 0.00 | 36 | 1007.6 |
| 20260504183943 | 72 | 157 | 3.0 | 6.0 | 0.00 | 0.00 | 0.00 | 38 | 1007.6 |
| 20260504183441 | 72 | 310 | 4.0 | 6.0 | 0.00 | 0.00 | 0.00 | 38 | 1007.5 |
| 20260504182938 | 71 | 275 | 2.0 | 3.0 | 0.00 | 0.00 | 0.00 | 41 | 1007.5 |
| 20260504182435 | 70 | 299 | 3.0 | 6.0 | 0.00 | 0.00 | 0.00 | 40 | 1007.6 |
| 20260504181932 | 70 | 310 | 3.0 | 4.0 | 0.00 | 0.00 | 0.00 | 40 | 1007.6 |
| 20260504181429 | 71 | 196 | 3.0 | 6.0 | 0.00 | 0.00 | 0.00 | 38 | 1007.7 |
| 20260504180928 | 71 | 261 | 2.0 | 6.0 | 0.00 | 0.00 | 0.00 | 40 | 1007.8 |
| 20260504180426 | 71 | 353 | 2.0 | 4.0 | 0.00 | 0.00 | 0.00 | 39 | 1007.7 |
| 20260504175924 | 71 | 167 | 2.0 | 4.0 | 0.00 | 0.00 | 0.00 | 39 | 1007.6 |
| 20260504175421 | 71 | 286 | 4.0 | 6.0 | 0.00 | 0.00 | 0.00 | 39 | 1007.8 |
| 20260504174919 | 71 | 290 | 4.0 | 6.0 | 0.00 | 0.00 | 0.00 | 40 | 1007.7 |
| 20260504174416 | 70 | 314 | 2.0 | 7.0 | 0.00 | 0.00 | 0.00 | 41 | 1007.9 |
| 20260504173914 | 71 | 261 | 4.0 | 9.0 | 0.00 | 0.00 | 0.00 | 40 | 1007.8 |
| 20260504173409 | 71 | 100 | 1.0 | 8.0 | 0.00 | 0.00 | 0.00 | 39 | 1007.8 |
| 20260504172907 | 72 | 251 | 3.0 | 4.0 | 0.00 | 0.00 | 0.00 | 40 | 1007.8 |
| 20260504172403 | 71 | 332 | 2.0 | 3.0 | 0.00 | 0.00 | 0.00 | 41 | 1007.8 |
| 20260504171900 | 70 | 292 | 2.0 | 6.0 | 0.00 | 0.00 | 0.00 | 41 | 1008.0 |
| 20260504171357 | 70 | 307 | 4.0 | 8.0 | 0.00 | 0.00 | 0.00 | 40 | 1008.0 |
| 20260504170854 | 69 | 310 | 4.0 | 9.0 | 0.00 | 0.00 | 0.00 | 41 | 1007.9 |
| 20260504170350 | 70 | 300 | 3.0 | 6.0 | 0.00 | 0.00 | 0.00 | 40 | 1008.0 |
| 20260504160309 | 68 | 338 | 3.0 | 8.0 | 0.00 | 0.00 | 0.00 | 41 | 1008.8 |
| 20260504150734 | 65 | 188 | 2.0 | 3.0 | 0.00 | 0.00 | 0.00 | 44 | 1009.1 |
| 20260504150231 | 64 | 159 | 2.0 | 4.0 | 0.00 | 0.00 | 0.00 | 44 | 1009.3 |
| 20260504141200 | 62 | 55 | 3.0 | 9.0 | 0.00 | 0.00 | 0.00 | 45 | 1009.4 |
| 20260504140657 | 61 | 300 | 2.0 | 7.0 | 0.00 | 0.00 | 0.00 | 45 | 1009.4 |
| 20260504140152 | 60 | 289 | 0.0 | 3.0 | 0.00 | 0.00 | 0.00 | 48 | 1009.4 |
| 20260504130621 | 58 | 251 | 4.0 | 9.0 | 0.00 | 0.00 | 0.00 | 46 | 1009.7 |
| 20260504130118 | 57 | 267 | 1.0 | 6.0 | 0.00 | 0.00 | 0.00 | 46 | 1009.7 |
| 20260504110503 | 54 | 199 | 4.0 | 6.0 | 0.00 | 0.00 | 0.00 | 50 | 1009.8 |
| 20260504100425 | 53 | 165 | 2.0 | 8.0 | 0.00 | 0.00 | 0.00 | 49 | 1009.7 |
| 20260504081818 | 52 | 183 | 1.0 | 4.0 | 0.00 | 0.00 | 0.00 | 52 | 1010.1 |
| 20260504081315 | 52 | 131 | 1.0 | 6.0 | 0.00 | 0.00 | 0.00 | 51 | 1010.1 |
| 20260504080810 | 52 | 192 | 4.0 | 6.0 | 0.00 | 0.00 | 0.00 | 51 | 1010.2 |
| 20260504080308 | 52 | 147 | 1.0 | 4.0 | 0.00 | 0.00 | 0.00 | 52 | 1010.3 |
| 20260504070235 | 52 | 158 | 0.0 | 1.0 | 0.00 | 0.00 | 0.00 | 53 | 1010.4 |
| 20260504060156 | 53 | 359 | 1.0 | 3.0 | 0.00 | 0.00 | 0.00 | 49 | 1010.5 |
| 20260504050624 | 52 | 57 | 0.0 | 1.0 | 0.00 | 0.00 | 0.00 | 57 | 1010.7 |
| 20260504050121 | 52 | 166 | 0.0 | 1.0 | 0.00 | 0.00 | 0.00 | 56 | 1010.7 |
| 20260504045618 | 52 | 106 | 0.0 | 2.0 | 0.00 | 0.00 | 0.00 | 56 | 1010.7 |
| 20260504045118 | 52 | 122 | 0.0 | 2.0 | 0.00 | 0.00 | 0.00 | 58 | 1010.7 |
| 20260504044616 | 52 | 111 | 0.0 | 0.0 | 0.00 | 0.00 | 0.00 | 59 | 1010.8 |
| 20260504044112 | 52 | 91 | 0.0 | 0.0 | 0.00 | 0.00 | 0.00 | 58 | 1010.8 |
| 20260504043609 | 51 | 79 | 0.0 | 0.0 | 0.00 | 0.00 | 0.00 | 60 | 1010.9 |
| 20260504043107 | 51 | 81 | 0.0 | 0.0 | 0.00 | 0.00 | 0.00 | 60 | 1010.9 |
| 20260504042604 | 51 | 93 | 0.0 | 0.0 | 0.00 | 0.00 | 0.00 | 60 | 1010.9 |
| 20260504042100 | 51 | 84 | 0.0 | 0.0 | 0.00 | 0.00 | 0.00 | 59 | 1010.9 |
| 20260504041556 | 51 | 99 | 0.0 | 0.0 | 0.00 | 0.00 | 0.00 | 60 | 1010.8 |
| 20260504041053 | 51 | 95 | 0.0 | 0.0 | 0.00 | 0.00 | 0.00 | 62 | 1011.0 |
| 20260504040551 | 51 | 95 | 0.0 | 0.0 | 0.00 | 0.00 | 0.00 | 62 | 1011.1 |
| 20260504040047 | 51 | 83 | 0.0 | 0.0 | 0.00 | 0.00 | 0.00 | 61 | 1011.0 |
| 20260504035544 | 51 | 79 | 0.0 | 0.0 | 0.00 | 0.00 | 0.00 | 61 | 1011.1 |
| 20260504035040 | 51 | 86 | 0.0 | 0.0 | 0.00 | 0.00 | 0.00 | 62 | 1011.0 |
| 20260504034538 | 51 | 79 | 0.0 | 0.0 | 0.00 | 0.00 | 0.00 | 63 | 1011.1 |
| 20260504034034 | 51 | 93 | 0.0 | 0.0 | 0.00 | 0.00 | 0.00 | 64 | 1011.1 |
| 20260504033532 | 50 | 112 | 0.0 | 0.0 | 0.00 | 0.00 | 0.00 | 65 | 1011.3 |
| 20260504033030 | 50 | 88 | 0.0 | 0.0 | 0.00 | 0.00 | 0.00 | 66 | 1011.5 |
| 20260504032526 | 50 | 130 | 0.0 | 0.0 | 0.00 | 0.00 | 0.00 | 68 | 1011.4 |
| 20260504032023 | 50 | 139 | 0.0 | 0.0 | 0.00 | 0.00 | 0.00 | 68 | 1011.4 |
| 20260504031520 | 50 | 142 | 0.0 | 0.0 | 0.00 | 0.00 | 0.00 | 67 | 1011.2 |
| 20260504031016 | 50 | 126 | 0.0 | 2.0 | 0.00 | 0.00 | 0.00 | 66 | 1011.3 |
| 20260504030514 | 51 | 288 | 0.0 | 0.0 | 0.00 | 0.00 | 0.00 | 66 | 1011.3 |
| 20260504030010 | 51 | 74 | 0.0 | 0.0 | 0.00 | 0.00 | 0.00 | 66 | 1011.4 |
| 20260504025507 | 51 | 41 | 0.0 | 0.0 | 0.00 | 0.00 | 0.00 | 65 | 1011.5 |
| 20260504025004 | 51 | 81 | 0.0 | 0.0 | 0.00 | 0.00 | 0.00 | 65 | 1011.5 |
| 20260504024500 | 51 | 180 | 1.0 | 1.0 | 0.00 | 0.00 | 0.00 | 65 | 1011.5 |
| 20260504023958 | 51 | 68 | 0.0 | 1.0 | 0.00 | 0.00 | 0.00 | 67 | 1011.7 |
| 20260504023454 | 51 | 316 | 0.0 | 0.0 | 0.00 | 0.00 | 0.00 | 65 | 1011.7 |
| 20260504022950 | 51 | 306 | 1.0 | 2.0 | 0.00 | 0.00 | 0.00 | 64 | 1012.0 |
| 20260504022446 | 51 | 291 | 1.0 | 2.0 | 0.00 | 0.00 | 0.00 | 67 | 1012.0 |
| 20260504021943 | 51 | 308 | 0.0 | 2.0 | 0.00 | 0.00 | 0.00 | 67 | 1012.1 |
| 20260504021440 | 51 | 302 | 1.0 | 3.0 | 0.00 | 0.00 | 0.00 | 67 | 1012.1 |
| 20260504020937 | 51 | 298 | 0.0 | 2.0 | 0.00 | 0.00 | 0.00 | 66 | 1012.4 |
| 20260504020434 | 51 | 303 | 2.0 | 2.0 | 0.00 | 0.00 | 0.00 | 65 | 1012.2 |
| 20260504015931 | 52 | 303 | 3.0 | 4.0 | 0.00 | 0.00 | 0.00 | 67 | 1012.4 |
| 20260504015426 | 52 | 311 | 4.0 | 7.0 | 0.00 | 0.00 | 0.00 | 64 | 1012.6 |
| 20260504014923 | 53 | 318 | 4.0 | 7.0 | 0.00 | 0.00 | 0.00 | 60 | 1012.4 |
| 20260504014419 | 54 | 294 | 4.0 | 7.0 | 0.00 | 0.00 | 0.00 | 53 | 1012.4 |
| 20260504013916 | 54 | 225 | 2.0 | 7.0 | 0.00 | 0.00 | 0.00 | 53 | 1012.1 |
| 20260504013415 | 55 | 306 | 4.0 | 4.0 | 0.00 | 0.00 | 0.00 | 51 | 1012.1 |
| 20260504012910 | 55 | 293 | 3.0 | 7.0 | 0.00 | 0.00 | 0.00 | 49 | 1012.0 |
| 20260504012408 | 55 | 309 | 2.0 | 3.0 | 0.00 | 0.00 | 0.00 | 50 | 1011.8 |
| 20260504011905 | 55 | 301 | 2.0 | 4.0 | 0.00 | 0.00 | 0.00 | 48 | 1011.9 |
| 20260504011402 | 56 | 302 | 2.0 | 3.0 | 0.00 | 0.00 | 0.00 | 48 | 1011.9 |
| 20260504010858 | 56 | 321 | 6.0 | 10.0 | 0.00 | 0.00 | 0.00 | 47 | 1011.8 |
| 20260504010354 | 56 | 312 | 5.0 | 6.0 | 0.00 | 0.00 | 0.00 | 45 | 1011.9 |
| 20260504005851 | 56 | 306 | 3.0 | 6.0 | 0.00 | 0.00 | 0.00 | 45 | 1011.8 |
| 20260504005348 | 56 | 293 | 4.0 | 6.0 | 0.00 | 0.00 | 0.00 | 44 | 1011.6 |
| 20260504004845 | 56 | 298 | 2.0 | 4.0 | 0.00 | 0.00 | 0.00 | 44 | 1011.4 |
| 20260504004343 | 56 | 302 | 5.0 | 9.0 | 0.00 | 0.00 | 0.00 | 43 | 1011.4 |
| 20260504003839 | 56 | 307 | 4.0 | 6.0 | 0.00 | 0.00 | 0.00 | 44 | 1011.4 |
| 20260504003336 | 55 | 300 | 2.0 | 3.0 | 0.00 | 0.00 | 0.00 | 45 | 1011.3 |
| 20260504002832 | 54 | 282 | 3.0 | 8.0 | 0.00 | 0.00 | 0.00 | 46 | 1011.2 |
| 20260504002329 | 53 | 79 | 1.0 | 2.0 | 0.00 | 0.00 | 0.00 | 51 | 1011.2 |
| 20260504001827 | 53 | 104 | 0.0 | 0.0 | 0.00 | 0.00 | 0.00 | 49 | 1011.1 |
| 20260504001324 | 54 | 100 | 0.0 | 0.0 | 0.00 | 0.00 | 0.00 | 50 | 1011.1 |
| 20260504000821 | 54 | 325 | 0.0 | 1.0 | 0.00 | 0.00 | 0.00 | 50 | 1011.1 |
| 20260504000318 | 54 | 103 | 1.0 | 2.0 | 0.00 | 0.00 | 0.00 | 49 | 1011.2 |
| 20260503235815 | 54 | 194 | 0.0 | 1.0 | 0.00 | 0.00 | 0.00 | 47 | 1011.1 |
| 20260503235313 | 54 | 222 | 1.0 | 2.0 | 0.00 | 0.00 | 0.00 | 46 | 1011.2 |
| 20260503234805 | 54 | 124 | 1.0 | 2.0 | 0.00 | 0.00 | 0.00 | 47 | 1011.2 |
| 20260503234303 | 55 | 284 | 1.0 | 2.0 | 0.00 | 0.00 | 0.00 | 46 | 1011.4 |
| 20260503233800 | 54 | 288 | 3.0 | 3.0 | 0.00 | 0.00 | 0.00 | 46 | 1011.6 |
| 20260503233255 | 55 | 302 | 4.0 | 6.0 | 0.00 | 0.00 | 0.00 | 45 | 1011.7 |
| 20260503232752 | 55 | 306 | 4.0 | 7.0 | 0.00 | 0.00 | 0.00 | 46 | 1011.7 |
| 20260503232249 | 55 | 303 | 3.0 | 7.0 | 0.00 | 0.00 | 0.00 | 44 | 1011.5 |
| 20260503231747 | 55 | 303 | 6.0 | 7.0 | 0.00 | 0.00 | 0.00 | 42 | 1011.6 |
| 20260503231244 | 55 | 303 | 4.0 | 8.0 | 0.00 | 0.00 | 0.00 | 41 | 1011.5 |
| 20260503230740 | 55 | 309 | 3.0 | 6.0 | 0.00 | 0.00 | 0.00 | 41 | 1011.5 |
| 20260503230237 | 55 | 289 | 2.0 | 4.0 | 0.00 | 0.00 | 0.00 | 44 | 1011.4 |
| 20260503225729 | 55 | 303 | 2.0 | 2.0 | 0.00 | 0.00 | 0.00 | 41 | 1011.3 |
| 20260503225229 | 55 | 308 | 1.0 | 2.0 | 0.00 | 0.00 | 0.00 | 41 | 1011.3 |
| 20260503224727 | 55 | 310 | 3.0 | 3.0 | 0.00 | 0.00 | 0.00 | 41 | 1011.2 |
| 20260503224225 | 55 | 310 | 1.0 | 2.0 | 0.00 | 0.00 | 0.00 | 41 | 1011.1 |
| 20260503223722 | 56 | 314 | 0.0 | 3.0 | 0.00 | 0.00 | 0.00 | 41 | 1011.1 |
| 20260503223219 | 56 | 300 | 0.0 | 2.0 | 0.00 | 0.00 | 0.00 | 40 | 1011.1 |
| 20260503222710 | 56 | 168 | 1.0 | 4.0 | 0.00 | 0.00 | 0.00 | 39 | 1011.1 |
| 20260503222208 | 56 | 261 | 0.0 | 1.0 | 0.00 | 0.00 | 0.00 | 40 | 1010.9 |
| 20260503221706 | 56 | 308 | 2.0 | 3.0 | 0.00 | 0.00 | 0.00 | 39 | 1011.1 |
| 20260503221203 | 56 | 299 | 1.0 | 3.0 | 0.00 | 0.00 | 0.00 | 41 | 1011.3 |
| 20260503220659 | 55 | 305 | 1.0 | 1.0 | 0.00 | 0.00 | 0.00 | 41 | 1011.2 |
| 20260503220156 | 55 | 308 | 2.0 | 3.0 | 0.00 | 0.00 | 0.00 | 40 | 1011.4 |
| 20260503215653 | 56 | 335 | 1.0 | 2.0 | 0.00 | 0.00 | 0.00 | 40 | 1011.6 |
| 20260503215149 | 56 | 302 | 2.0 | 3.0 | 0.00 | 0.00 | 0.00 | 42 | 1011.6 |
| 20260503214648 | 57 | 150 | 0.0 | 1.0 | 0.00 | 0.00 | 0.00 | 41 | 1011.3 |
| 20260503214143 | 56 | 296 | 0.0 | 1.0 | 0.00 | 0.00 | 0.00 | 43 | 1011.5 |
| 20260503213638 | 55 | 292 | 3.0 | 4.0 | 0.00 | 0.00 | 0.00 | 42 | 1011.2 |
| 20260503213134 | 55 | 311 | 2.0 | 4.0 | 0.00 | 0.00 | 0.00 | 43 | 1011.5 |
| 20260503212631 | 55 | 287 | 3.0 | 4.0 | 0.00 | 0.00 | 0.00 | 42 | 1011.2 |
| 20260503212129 | 55 | 308 | 6.0 | 7.0 | 0.00 | 0.00 | 0.00 | 43 | 1011.2 |
| 20260503211627 | 56 | 297 | 3.0 | 3.0 | 0.00 | 0.00 | 0.00 | 43 | 1011.3 |
| 20260503211122 | 55 | 178 | 1.0 | 4.0 | 0.00 | 0.00 | 0.00 | 44 | 1011.3 |
| 20260503210618 | 55 | 277 | 2.0 | 3.0 | 0.00 | 0.00 | 0.00 | 43 | 1011.4 |
| 20260503210115 | 56 | 303 | 4.0 | 4.0 | 0.00 | 0.00 | 0.00 | 43 | 1011.5 |
| 20260503205611 | 55 | 294 | 2.0 | 3.0 | 0.00 | 0.00 | 0.00 | 43 | 1011.6 |
| 20260503205107 | 55 | 328 | 3.0 | 3.0 | 0.00 | 0.00 | 0.00 | 43 | 1011.6 |
| 20260503204604 | 55 | 303 | 4.0 | 8.0 | 0.00 | 0.00 | 0.00 | 43 | 1011.6 |
| 20260503204101 | 55 | 308 | 4.0 | 6.0 | 0.00 | 0.00 | 0.00 | 43 | 1011.5 |
| 20260503203558 | 55 | 310 | 6.0 | 7.0 | 0.00 | 0.00 | 0.00 | 44 | 1011.5 |
| 20260503203055 | 55 | 302 | 3.0 | 8.0 | 0.00 | 0.00 | 0.00 | 42 | 1011.7 |
| 20260503202553 | 56 | 280 | 1.0 | 3.0 | 0.00 | 0.00 | 0.00 | 41 | 1011.6 |
| 20260503202051 | 55 | 317 | 3.0 | 6.0 | 0.00 | 0.00 | 0.00 | 40 | 1011.7 |
| 20260503201549 | 54 | 300 | 3.0 | 6.0 | 0.00 | 0.00 | 0.00 | 41 | 1011.8 |
| 20260503201046 | 54 | 306 | 6.0 | 6.0 | 0.00 | 0.00 | 0.00 | 43 | 1011.8 |
| 20260503200542 | 54 | 287 | 4.0 | 6.0 | 0.00 | 0.00 | 0.00 | 43 | 1011.9 |
| 20260503200039 | 54 | 293 | 3.0 | 4.0 | 0.00 | 0.00 | 0.00 | 42 | 1012.0 |
| 20260503195536 | 55 | 298 | 2.0 | 3.0 | 0.00 | 0.00 | 0.00 | 41 | 1011.9 |
| 20260503195032 | 54 | 297 | 1.0 | 2.0 | 0.00 | 0.00 | 0.00 | 42 | 1012.0 |
| 20260503194530 | 54 | 278 | 2.0 | 3.0 | 0.00 | 0.00 | 0.00 | 42 | 1012.2 |
| 20260503194030 | 54 | 299 | 1.0 | 3.0 | 0.00 | 0.00 | 0.00 | 42 | 1012.1 |
| 20260503193527 | 54 | 303 | 3.0 | 4.0 | 0.00 | 0.00 | 0.00 | 41 | 1012.2 |
| 20260503193022 | 53 | 298 | 4.0 | 4.0 | 0.00 | 0.00 | 0.00 | 40 | 1012.2 |
| 20260503192518 | 54 | 300 | 4.0 | 7.0 | 0.00 | 0.00 | 0.00 | 39 | 1012.2 |
| 20260503192014 | 55 | 316 | 5.0 | 7.0 | 0.00 | 0.00 | 0.00 | 39 | 1012.3 |